TimeCDT,TemperatureF,Dew PointF,Humidity,Sea Level PressureIn,VisibilityMPH,Wind Direction,Wind SpeedMPH,Gust SpeedMPH,PrecipitationIn,Events,Conditions,WindDirDegrees,DateUTC
12:56 AM,53.1,48.9,86,30.01,10.0,Calm,Calm,-,N/A,,Clear,0,2012-10-21 05:56:00
1:56 AM,51.1,48.0,89,30.01,10.0,Calm,Calm,-,N/A,,Clear,0,2012-10-21 06:56:00
2:56 AM,50.0,46.9,89,30.02,10.0,Calm,Calm,-,N/A,,Clear,0,2012-10-21 07:56:00
3:56 AM,48.9,46.0,90,30.03,10.0,Calm,Calm,-,N/A,,Clear,0,2012-10-21 08:56:00
4:56 AM,48.9,46.9,93,30.04,10.0,Calm,Calm,-,N/A,,Clear,0,2012-10-21 09:56:00
5:56 AM,51.1,46.9,86,30.06,10.0,Calm,Calm,-,N/A,,Clear,0,2012-10-21 10:56:00
6:56 AM,51.1,48.0,89,30.08,10.0,Calm,Calm,-,N/A,,Clear,0,2012-10-21 11:56:00
7:56 AM,55.9,51.1,84,30.10,10.0,Calm,Calm,-,N/A,,Clear,0,2012-10-21 12:56:00
8:56 AM,64.0,54.0,70,30.12,10.0,NE,4.6,-,N/A,,Clear,40,2012-10-21 13:56:00
9:56 AM,70.0,51.1,51,30.13,10.0,East,5.8,-,N/A,,Clear,90,2012-10-21 14:56:00
10:56 AM,73.9,52.0,46,30.13,10.0,East,6.9,-,N/A,,Partly Cloudy,80,2012-10-21 15:56:00
11:56 AM,77.0,48.0,36,30.12,10.0,NE,6.9,-,N/A,,Scattered Clouds,50,2012-10-21 16:56:00
12:56 PM,79.0,46.9,32,30.11,10.0,ENE,6.9,-,N/A,,Scattered Clouds,60,2012-10-21 17:56:00
1:56 PM,80.1,42.1,26,30.08,10.0,ESE,4.6,-,N/A,,Scattered Clouds,110,2012-10-21 18:56:00
2:56 PM,80.1,45.0,29,30.07,10.0,SE,3.5,-,N/A,,Mostly Cloudy,130,2012-10-21 19:56:00
3:56 PM,80.1,48.0,32,30.06,10.0,NE,3.5,-,N/A,,Mostly Cloudy,40,2012-10-21 20:56:00
4:56 PM,80.1,48.9,34,30.06,10.0,NNE,4.6,-,N/A,,Mostly Cloudy,20,2012-10-21 21:56:00
5:56 PM,71.1,53.1,53,30.07,10.0,NNE,3.5,-,N/A,,Mostly Cloudy,30,2012-10-21 22:56:00
6:56 PM,66.0,55.0,68,30.09,10.0,Calm,Calm,-,N/A,,Mostly Cloudy,0,2012-10-21 23:56:00
7:56 PM,64.0,55.0,73,30.09,10.0,Calm,Calm,-,N/A,,Mostly Cloudy,0,2012-10-22 00:56:00
8:56 PM,63.0,53.1,70,30.10,10.0,Calm,Calm,-,N/A,,Scattered Clouds,0,2012-10-22 01:56:00
9:56 PM,61.0,53.1,75,30.10,10.0,NE,3.5,-,N/A,,Partly Cloudy,50,2012-10-22 02:56:00
10:56 PM,60.1,53.1,78,30.10,10.0,Calm,Calm,-,N/A,,Clear,0,2012-10-22 03:56:00
11:56 PM,57.9,52.0,81,30.10,10.0,Calm,Calm,-,N/A,,Clear,0,2012-10-22 04:56:00